[Date Prev][Date Next][Thread Prev][Thread Next] - [Date Index][Thread Index][Author Index]
2 Line ISS Keps 1-5
- Subject: [sarex] 2 Line ISS Keps 1-5
- From: "Dave Larsen PhD" <doc@xxxxxxxxxxx>
- Date: Wed, 4 Jan 2006 18:34:27 -0800
ISS
1 25544U 98067A 06005.03960631 .00016566 00000-0 11876-3 0 912
2 25544 051.6449 306.2783 0011033 118.3773 346.1630 15.73776683407454
----
Via the sarex mailing list at AMSAT.ORG courtesy of AMSAT-NA.
To unsubscribe, send "unsubscribe sarex" to Majordomo@amsat.org
AMSAT Home